Regional Weather Roundup
Issued by NWS

Home | Current Version | Previous Version | Text Only | Print | Product List | Glossary Off
Versions: 1 2 3 4 5 6 7 8 9 10 11 12 13 14 15 16 17 18 19 20 21 22 23 24 25 26 27 28 29 30 31 32 33 34 35 36 37 38 39 40 41 42 43 44 45 46 47 48 49 50

000
ASUS43 KLMK 060010
RWRKY
KENTUCKY REGIONAL WEATHER ROUNDUP
NATIONAL WEATHER SERVICE LOUISVILLE KY
700 PM EST THU MAR 05 2015

NOTE "FAIR" INDICATES FEW OR NO CLOUDS BELOW 12,000 FEET
WITH NO SIGNIFICANT WEATHER AND/OR OBSTRUCTIONS TO VISIBILITY.

KYZ001>023-026-027-061>063-070>075-060100-
WESTERN AND SOUTH CENTRAL KENTUCKY

CITY           SKY/WX    TMP DP  RH WIND       PRES   REMARKS
PADUCAH        CLEAR     20   5  52 N9        30.57R WCI   9
HENDERSON      CLEAR     18   1  49 N6        30.58R WCI   9
OWENSBORO      CLEAR     16   4  59 NW7       30.56R WCI   6
HOPKINSVILLE   CLEAR     20   6  55 N7        30.53R WCI  11
BOWLING GREEN  CLEAR     23   9  55 NW10      30.51R WCI  12
GLASGOW        MOCLDY    22  13  69 N3        30.49R
$$

KYZ024-025-028>034-038-045-046-053-060100-
NORTH CENTRAL KENTUCKY

CITY           SKY/WX    TMP DP  RH WIND       PRES   REMARKS
LOUISVILLE/SDF MOCLDY    26  12  55 N7        30.49R WCI  18
LOUISVILLE/LOU CLOUDY    26  12  55 N3        30.50R
FORT KNOX      CLOUDY    24  11  59 N7        30.46S WCI  15
$$

KYZ035>037-039>044-047>052-055>060-089>105-060100-
NORTHEAST KENTUCKY

CITY           SKY/WX    TMP DP  RH WIND       PRES   REMARKS
LEXINGTON      FLURRIES  18  10  71 NE3       30.46R
COVINGTON      PTCLDY    19   5  54 N8        30.47R WCI   9
FRANKFORT      CLOUDY    23  12  62 N8        30.47R WCI  14
$$

KYZ054-064>069-076>088-106>120-060100-
SOUTHEAST KENTUCKY

CITY           SKY/WX    TMP DP  RH WIND       PRES   REMARKS
JACKSON        PTCLDY    17   9  70 VRB3      30.43R
LONDON         CLOUDY    19  10  68 N3        30.45R
SOMERSET       MOCLDY    19  12  73 NE5       30.48R WCI  13
MIDDLESBORO    FLURRIES  23  18  81 N6        30.43R WCI  15
MONTICELLO     MIX PCPN  19  12  74 NE5       30.50R WCI  12
$$




USA.gov is the U.S. government's official web portal to all federal, state and local government web resources and services.